Weather History for Devils Lake, ND

Change the Weather History Date:

Wednesday, May 13, 2009

  Actual Average Record
Temperature  
Mean Temperature 50 °F -  
Max Temperature 55 °F 65 °F 90 °F (1977)
Min Temperature 44 °F 42 °F 26 °F (2004)
Degree Days  
Heating Degree Days 16    
Moisture  
Dew Point 43 °F    
Average Humidity 76    
Maximum Humidity 88    
Minimum Humidity 62    
Precipitation  
Precipitation 0.25 in - - ()
Sea Level Pressure  
Sea Level Pressure 29.38 in    
Wind  
Wind Speed 19 mph (WNW)    
Max Wind Speed 30 mph    
Max Gust Speed 44 mph    
Visibility 9 miles    
Events      
Averages and records for this station are not official NWS values.
T = Trace of Precipitation, MM = Missing Value Source: NWS Daily Summary

Daily Weather History Graph

Daily Weather History Graph

Search for Another Location

Airport:

Trip Planner

Search our weather history database for the weather conditions in past years. The results will help you decide how hot, cold, wet, or windy it might be!

Date:

Astronomy

May. 13, 2009 Rise Set
Actual Time 5:58 AM CDT 9:06 PM CDT
Civil Twilight 5:21 AM CDT 9:43 PM CDT
Nautical Twilight 4:34 AM CDT 10:31 PM CDT
Astronomical Twilight 3:34 AM CDT 11:31 PM CDT
Moon 12:55 AM CDT (5/13) 9:00 AM CDT (5/13)
Length of Visible Light 16h 21m
Length of Day
15h 07m
Waning Gibbous, 82% of the Moon is Illuminated
May 13
Waning Gibbous
May 17
Last Quarter
May 24
New
May 30
First Quarter
Jun 7
Full

Hourly Weather History & Observations

Time (CDT) Temp. Windchill Dew Point Humidity Pressure Visibility Wind Dir Wind Speed Gust Speed Precip Events Conditions
12:15 AM 53.6 °F - 48.2 °F 82% 29.29 in 10.0 mi NNW 9.2 mph - N/A   Overcast
12:35 AM 53.6 °F - 48.2 °F 82% 29.28 in 10.0 mi NW 6.9 mph - N/A   Overcast
12:55 AM 53.6 °F - 48.2 °F 82% 29.27 in 10.0 mi NNW 5.8 mph - N/A   Overcast
1:15 AM 53.6 °F - 48.2 °F 82% 29.27 in 10.0 mi West 9.2 mph - N/A   Overcast
1:35 AM 51.8 °F - 48.2 °F 88% 29.28 in 10.0 mi West 13.8 mph - 0.01 in   Overcast
1:55 AM 51.8 °F - 48.2 °F 88% 29.28 in 4.0 mi West 13.8 mph - 0.03 in   Overcast
2:15 AM 51.8 °F - 48.2 °F 88% 29.28 in 5.0 mi West 25.3 mph 28.8 mph 0.06 in   Overcast
2:35 AM 50.0 °F - 46.4 °F 87% 29.28 in 9.0 mi WNW 26.5 mph 36.8 mph 0.07 in   Overcast
2:55 AM 48.2 °F - 44.6 °F 87% 29.28 in 7.0 mi West 29.9 mph 43.7 mph 0.08 in   Mostly Cloudy
3:15 AM 48.2 °F - 42.8 °F 82% 29.27 in 10.0 mi WNW 29.9 mph 38.0 mph N/A   Mostly Cloudy
3:35 AM 48.2 °F - 42.8 °F 82% 29.27 in 10.0 mi WNW 23.0 mph 34.5 mph N/A   Mostly Cloudy
3:55 AM 48.2 °F - 44.6 °F 87% 29.28 in 10.0 mi West 21.9 mph 29.9 mph N/A   Overcast
4:15 AM 48.2 °F - 44.6 °F 87% 29.28 in 10.0 mi West 20.7 mph 26.5 mph N/A   Overcast
4:35 AM 50.0 °F - 42.8 °F 76% 29.28 in 10.0 mi WNW 19.6 mph 26.5 mph 0.01 in   Overcast
4:55 AM 48.2 °F - 44.6 °F 87% 29.29 in 10.0 mi West 15.0 mph - 0.01 in   Overcast
5:15 AM 50.0 °F - 44.6 °F 82% 29.29 in 10.0 mi West 15.0 mph - N/A   Overcast
5:35 AM 50.0 °F - 44.6 °F 82% 29.29 in 10.0 mi West 12.7 mph - N/A   Overcast
5:55 AM 48.2 °F - 44.6 °F 87% 29.28 in 10.0 mi WSW 12.7 mph - N/A   Overcast
6:15 AM 48.2 °F - 44.6 °F 87% 29.28 in 10.0 mi SW 17.3 mph - N/A   Overcast
6:35 AM 48.2 °F - 44.6 °F 87% 29.28 in 10.0 mi WSW 17.3 mph - N/A   Overcast
6:55 AM 48.2 °F - 42.8 °F 82% 29.28 in 10.0 mi WSW 19.6 mph - N/A   Mostly Cloudy
7:15 AM 50.0 °F - 42.8 °F 76% 29.29 in 10.0 mi West 23.0 mph 29.9 mph N/A   Scattered Clouds
7:35 AM 50.0 °F - 42.8 °F 76% 29.30 in 10.0 mi West 23.0 mph 31.1 mph N/A   Overcast
7:55 AM 50.0 °F - 42.8 °F 76% 29.30 in 10.0 mi West 23.0 mph 32.2 mph N/A   Overcast
8:15 AM 50.0 °F - 42.8 °F 76% 29.32 in 10.0 mi West 23.0 mph 29.9 mph N/A   Overcast
8:35 AM 51.8 °F - 42.8 °F 71% 29.32 in 10.0 mi West 28.8 mph 35.7 mph N/A   Mostly Cloudy
8:55 AM 51.8 °F - 41.0 °F 67% 29.34 in 10.0 mi WNW 27.6 mph 35.7 mph N/A   Mostly Cloudy
9:15 AM 51.8 °F - 42.8 °F 71% 29.35 in 10.0 mi West 25.3 mph 33.4 mph N/A   Overcast
9:35 AM 51.8 °F - 42.8 °F 71% 29.35 in 10.0 mi WNW 28.8 mph 36.8 mph N/A   Overcast
9:55 AM 51.8 °F - 42.8 °F 71% 29.36 in 10.0 mi West 28.8 mph 34.5 mph N/A   Overcast
10:15 AM 51.8 °F - 42.8 °F 71% 29.37 in 10.0 mi WNW 28.8 mph 34.5 mph N/A   Overcast
10:35 AM 53.6 °F - 42.8 °F 67% 29.38 in 10.0 mi WNW 23.0 mph 32.2 mph N/A   Overcast
10:55 AM 53.6 °F - 42.8 °F 67% 29.39 in 10.0 mi WNW 26.5 mph 34.5 mph N/A   Overcast
11:15 AM 53.6 °F - 42.8 °F 67% 29.40 in 10.0 mi West 26.5 mph 33.4 mph N/A   Overcast
11:35 AM 53.6 °F - 42.8 °F 67% 29.41 in 10.0 mi West 27.6 mph 32.2 mph N/A   Overcast
11:55 AM 53.6 °F - 42.8 °F 67% 29.41 in 10.0 mi West 24.2 mph 32.2 mph N/A   Overcast
12:15 PM 55.4 °F - 42.8 °F 63% 29.41 in 10.0 mi West 27.6 mph 34.5 mph N/A   Mostly Cloudy
12:35 PM 55.4 °F - 42.8 °F 63% 29.42 in 10.0 mi West 29.9 mph 36.8 mph N/A   Overcast
12:55 PM 55.4 °F - 42.8 °F 63% 29.43 in 10.0 mi West 28.8 mph 38.0 mph N/A   Overcast
1:15 PM 53.6 °F - 41.0 °F 62% 29.44 in 10.0 mi West 24.2 mph 33.4 mph N/A   Overcast
1:35 PM 53.6 °F - 41.0 °F 62% 29.44 in 10.0 mi West 25.3 mph 32.2 mph N/A   Overcast
1:55 PM 51.8 °F - 41.0 °F 67% 29.45 in 10.0 mi WNW 25.3 mph 34.5 mph N/A   Overcast
2:15 PM 51.8 °F - 39.2 °F 62% 29.47 in 10.0 mi West 25.3 mph 32.2 mph N/A   Overcast
2:35 PM 50.0 °F - 39.2 °F 66% 29.48 in 10.0 mi WNW 23.0 mph 33.4 mph N/A   Overcast
2:55 PM 50.0 °F - 39.2 °F 66% 29.48 in 10.0 mi WNW 23.0 mph 27.6 mph N/A   Overcast
3:15 PM 50.0 °F - 39.2 °F 66% 29.48 in 10.0 mi West 24.2 mph 29.9 mph N/A   Overcast
3:35 PM 50.0 °F - 39.2 °F 66% 29.48 in 10.0 mi West 26.5 mph 31.1 mph N/A   Overcast
3:55 PM 50.0 °F - 37.4 °F 62% 29.49 in 10.0 mi WNW 27.6 mph 34.5 mph N/A   Overcast
4:15 PM 48.2 °F - 39.2 °F 71% 29.50 in 10.0 mi WNW 25.3 mph 29.9 mph N/A   Overcast
4:35 PM 48.2 °F - 39.2 °F 71% 29.51 in 10.0 mi West 26.5 mph 32.2 mph N/A   Overcast
4:55 PM 46.4 °F 38.3 °F 41.0 °F 81% 29.53 in 7.0 mi WNW 23.0 mph 29.9 mph 0.01 in   Overcast
5:15 PM 46.4 °F 37.9 °F 41.0 °F 81% 29.53 in 3.0 mi WNW 25.3 mph 31.1 mph 0.02 in   Overcast
5:35 PM 46.4 °F 38.5 °F 42.8 °F 87% 29.54 in 5.0 mi West 21.9 mph 26.5 mph 0.06 in   Overcast
5:55 PM 46.4 °F 39.2 °F 41.0 °F 81% 29.55 in 10.0 mi West 18.4 mph 24.2 mph 0.10 in   Overcast
6:15 PM 46.4 °F 38.5 °F 42.8 °F 87% 29.55 in 4.0 mi West 21.9 mph 27.6 mph 0.01 in   Mostly Cloudy
6:35 PM 46.4 °F 40.1 °F 41.0 °F 81% 29.56 in 2.5 mi WNW 15.0 mph - 0.02 in   Overcast
6:55 PM 44.6 °F 36.4 °F 39.2 °F 81% 29.58 in 10.0 mi North 20.7 mph 28.8 mph 0.02 in   Overcast
7:15 PM 44.6 °F 36.9 °F 39.2 °F 81% 29.60 in 10.0 mi North 18.4 mph 26.5 mph N/A   Overcast
7:35 PM 44.6 °F 36.6 °F 37.4 °F 76% 29.62 in 9.0 mi North 19.6 mph - N/A   Overcast
7:55 PM 44.6 °F 38.4 °F 39.2 °F 81% 29.64 in 7.0 mi North 12.7 mph 20.7 mph N/A   Overcast
8:15 PM 44.6 °F 37.4 °F 39.2 °F 81% 29.65 in 10.0 mi NNW 16.1 mph - N/A   Overcast
8:35 PM 44.6 °F 36.9 °F 37.4 °F 76% 29.67 in 10.0 mi NNW 18.4 mph 26.5 mph N/A   Overcast
8:55 PM 42.8 °F 34.0 °F 35.6 °F 76% 29.69 in 10.0 mi NNW 20.7 mph 28.8 mph N/A   Overcast
9:15 PM 42.8 °F 33.5 °F 33.8 °F 70% 29.70 in 10.0 mi NNW 23.0 mph 28.8 mph N/A   Overcast
9:35 PM 41.0 °F 30.7 °F 33.8 °F 76% 29.72 in 10.0 mi NNW 25.3 mph 31.1 mph N/A   Overcast
9:55 PM 41.0 °F 31.1 °F 30.2 °F 65% 29.74 in 10.0 mi NNW 23.0 mph 29.9 mph N/A   Overcast
10:15 PM 41.0 °F 31.4 °F 30.2 °F 65% 29.75 in 10.0 mi NNW 21.9 mph 33.4 mph N/A   Overcast
10:35 PM 39.2 °F 28.5 °F 30.2 °F 70% 29.77 in 10.0 mi North 24.2 mph 29.9 mph N/A   Overcast
10:55 PM 39.2 °F 28.3 °F 28.4 °F 65% 29.78 in 10.0 mi NNW 25.3 mph 35.7 mph N/A   Overcast
11:15 PM 39.2 °F 29.6 °F 28.4 °F 65% 29.80 in 10.0 mi NNW 19.6 mph 29.9 mph N/A   Overcast
11:35 PM 37.4 °F 25.2 °F 26.6 °F 65% 29.80 in 10.0 mi NNW 28.8 mph 35.7 mph N/A   Overcast
11:55 PM 37.4 °F 26.4 °F 28.4 °F 70% 29.82 in 10.0 mi NNW 23.0 mph 29.9 mph N/A   Overcast